LDA53W LOWW-LDDU

Flight info

Callsign LDA53W
Flight time 0h 58m
Altitude 33000
Route STEIN DCT NOHAT DCT KOPRY DCT NETKO
Aircraft A320/M-SDE3FGHIRWY/LB1

Departure

Time 2026-04-21 21:40
Airport Vienna International Airport (LOWW)

Arrival

Time 2026-04-21 22:38
Airport Dubrovnik Ruđer Bošković Airport (LDDU)
Time Latitude Longitude Altitude Speed Heading
2026-04-21 21:10 48.11789 16.56038 609 ft 0 kts 38°
2026-04-21 21:28 48.11779 16.56026 619 ft 3 kts 40°
2026-04-21 21:28 48.11764 16.56006 625 ft 3 kts 45°
2026-04-21 21:28 48.11740 16.55959 625 ft 3 kts 75°
2026-04-21 21:29 48.11738 16.55935 620 ft 2 kts 112°
2026-04-21 21:29 48.11739 16.55930 623 ft 0 kts 116°
2026-04-21 21:31 48.11735 16.55943 622 ft 2 kts 115°
2026-04-21 21:32 48.11730 16.55954 616 ft 1 kts 125°
2026-04-21 21:32 48.11706 16.55979 624 ft 8 kts 156°
2026-04-21 21:32 48.11652 16.55977 610 ft 7 kts 181°
2026-04-21 21:32 48.11617 16.56017 614 ft 8 kts 116°
2026-04-21 21:33 48.11588 16.56113 619 ft 11 kts 115°
2026-04-21 21:33 48.11558 16.56207 619 ft 9 kts 116°
2026-04-21 21:33 48.11530 16.56289 612 ft 8 kts 116°
2026-04-21 21:33 48.11505 16.56366 616 ft 10 kts 116°
2026-04-21 21:34 48.11465 16.56487 613 ft 16 kts 116°
2026-04-21 21:34 48.11433 16.56586 615 ft 15 kts 116°
2026-04-21 21:34 48.11377 16.56760 615 ft 13 kts 116°
2026-04-21 21:34 48.11340 16.56874 616 ft 11 kts 116°
2026-04-21 21:35 48.11308 16.56975 613 ft 10 kts 116°
2026-04-21 21:35 48.11284 16.57047 610 ft 14 kts 116°
2026-04-21 21:35 48.11209 16.57274 616 ft 19 kts 115°
2026-04-21 21:35 48.11171 16.57392 618 ft 18 kts 115°
2026-04-21 21:36 48.11130 16.57517 616 ft 12 kts 116°
2026-04-21 21:36 48.11098 16.57615 612 ft 9 kts 116°
2026-04-21 21:36 48.11048 16.57646 625 ft 8 kts 188°
2026-04-21 21:36 48.11027 16.57635 610 ft 0 kts 205°
2026-04-21 21:38 48.11013 16.57625 615 ft 3 kts 205°
2026-04-21 21:38 48.10981 16.57602 614 ft 7 kts 205°
2026-04-21 21:38 48.10941 16.57575 610 ft 6 kts 205°
2026-04-21 21:38 48.10921 16.57538 610 ft 4 kts 257°
2026-04-21 21:39 48.10928 16.57498 622 ft 5 kts 293°
2026-04-21 21:39 48.10977 16.57341 618 ft 44 kts 295°
2026-04-21 21:39 48.11211 16.56621 611 ft 107 kts 296°
2026-04-21 21:39 48.11618 16.55379 623 ft 157 kts 296°
2026-04-21 21:40 48.12134 16.53784 919 ft 174 kts 295°
2026-04-21 21:40 48.12511 16.52038 1570 ft 184 kts 270°
2026-04-21 21:40 48.12001 16.50248 2108 ft 200 kts 223°
2026-04-21 21:40 48.10738 16.49343 2605 ft 208 kts 191°
2026-04-21 21:41 48.09274 16.48981 3064 ft 220 kts 185°
2026-04-21 21:41 48.07717 16.48670 3565 ft 232 kts 186°
2026-04-21 21:41 48.06114 16.48277 4316 ft 233 kts 190°
2026-04-21 21:41 48.04583 16.47484 5012 ft 243 kts 211°
2026-04-21 21:42 48.03098 16.46019 5365 ft 267 kts 214°
2026-04-21 21:42 48.01503 16.44451 5965 ft 279 kts 213°
2026-04-21 21:42 47.99806 16.42982 6800 ft 284 kts 202°
2026-04-21 21:42 47.97886 16.42300 7619 ft 286 kts 182°
2026-04-21 21:43 47.95899 16.42565 8437 ft 288 kts 165°
2026-04-21 21:43 47.93940 16.43275 9262 ft 292 kts 165°
2026-04-21 21:43 47.91957 16.43990 10110 ft 294 kts 165°
2026-04-21 21:43 47.89921 16.44717 10558 ft 311 kts 166°
2026-04-21 21:44 47.87730 16.45493 10767 ft 335 kts 166°
2026-04-21 21:44 47.85433 16.46302 11149 ft 349 kts 166°
2026-04-21 21:44 47.83017 16.47149 11827 ft 354 kts 166°
2026-04-21 21:44 47.80603 16.47993 12488 ft 359 kts 166°
2026-04-21 21:45 47.78189 16.48841 13217 ft 362 kts 167°
2026-04-21 21:45 47.75712 16.49708 13854 ft 368 kts 167°
2026-04-21 21:45 47.73210 16.50582 14520 ft 371 kts 167°
2026-04-21 21:45 47.70684 16.51465 15175 ft 373 kts 167°
2026-04-21 21:46 47.68148 16.52352 15761 ft 378 kts 167°
2026-04-21 21:46 47.65571 16.53252 16359 ft 381 kts 167°
2026-04-21 21:46 47.62977 16.54155 16970 ft 385 kts 167°
2026-04-21 21:46 47.60528 16.55009 17553 ft 387 kts 167°
2026-04-21 21:47 47.60523 16.55010 17555 ft 387 kts 167°
2026-04-21 21:47 47.58001 16.55903 16331 ft 432 kts 167°
2026-04-21 21:47 47.54980 16.56964 16155 ft 448 kts 167°
2026-04-21 21:48 47.52009 16.58006 17450 ft 429 kts 167°
2026-04-21 21:48 47.49135 16.58732 18789 ft 409 kts 173°
2026-04-21 21:48 47.46373 16.59276 19741 ft 402 kts 174°
2026-04-21 21:48 47.43600 16.59819 20371 ft 403 kts 175°
2026-04-21 21:49 47.40802 16.60076 20888 ft 404 kts 181°
2026-04-21 21:49 47.37980 16.60190 21436 ft 407 kts 181°
2026-04-21 21:49 47.35139 16.60306 21948 ft 409 kts 181°
2026-04-21 21:49 47.32280 16.60423 22457 ft 412 kts 181°
2026-04-21 21:50 47.29410 16.60545 22952 ft 414 kts 181°
2026-04-21 21:50 47.26519 16.60672 23433 ft 417 kts 181°
2026-04-21 21:50 47.23612 16.60801 23878 ft 419 kts 181°
2026-04-21 21:50 47.20682 16.60934 24234 ft 423 kts 181°
2026-04-21 21:51 47.17733 16.61069 24573 ft 426 kts 181°
2026-04-21 21:51 47.14761 16.61196 24925 ft 428 kts 181°
2026-04-21 21:51 47.11768 16.61320 25260 ft 431 kts 181°
2026-04-21 21:51 47.08760 16.61448 25612 ft 433 kts 181°
2026-04-21 21:52 47.05738 16.61579 25949 ft 436 kts 181°
2026-04-21 21:52 47.02698 16.61706 26287 ft 438 kts 181°
2026-04-21 21:52 46.99643 16.61835 26589 ft 441 kts 181°
2026-04-21 21:52 46.96565 16.61969 26915 ft 443 kts 181°
2026-04-21 21:53 46.93475 16.62106 27225 ft 446 kts 181°
2026-04-21 21:53 46.90365 16.62241 27538 ft 448 kts 181°
2026-04-21 21:53 46.87242 16.62376 27845 ft 450 kts 181°
2026-04-21 21:53 46.84092 16.62533 28144 ft 454 kts 179°
2026-04-21 21:54 46.80955 16.63179 28433 ft 459 kts 170°
2026-04-21 21:54 46.77878 16.64539 28687 ft 465 kts 161°
2026-04-21 21:54 46.74873 16.66328 28945 ft 468 kts 160°
2026-04-21 21:54 46.71856 16.68125 29203 ft 470 kts 160°
2026-04-21 21:55 46.68815 16.69929 29458 ft 472 kts 160°
2026-04-21 21:55 46.65806 16.71712 29706 ft 474 kts 160°
2026-04-21 21:55 46.62747 16.73524 29947 ft 476 kts 160°
2026-04-21 21:55 46.59677 16.75344 30181 ft 478 kts 160°
2026-04-21 21:56 46.56594 16.77171 30415 ft 478 kts 160°
2026-04-21 21:56 46.53517 16.78995 30661 ft 478 kts 160°
2026-04-21 21:56 46.50435 16.80816 30912 ft 478 kts 160°
2026-04-21 21:56 46.47349 16.82631 31162 ft 478 kts 160°
2026-04-21 21:57 46.44260 16.84440 31421 ft 478 kts 160°
2026-04-21 21:57 46.41173 16.86248 31680 ft 478 kts 161°
2026-04-21 21:57 46.38079 16.88059 31939 ft 479 kts 161°
2026-04-21 21:57 46.34987 16.89868 32193 ft 479 kts 161°
2026-04-21 21:58 46.31900 16.91674 32429 ft 479 kts 161°
2026-04-21 21:58 46.28808 16.93486 32651 ft 480 kts 161°
2026-04-21 21:58 46.25710 16.95281 32901 ft 479 kts 164°
2026-04-21 21:58 46.22518 16.96604 33103 ft 475 kts 173°
2026-04-21 21:59 46.19317 16.97373 33153 ft 472 kts 175°
2026-04-21 21:59 46.12861 16.98843 33142 ft 469 kts 175°
2026-04-21 22:00 46.06415 17.00336 33144 ft 469 kts 175°
2026-04-21 22:00 45.99965 17.01824 33152 ft 469 kts 176°
2026-04-21 22:01 45.93509 17.03302 33141 ft 469 kts 176°
2026-04-21 22:01 45.87060 17.04774 33114 ft 469 kts 176°
2026-04-21 22:02 45.80605 17.06233 33118 ft 469 kts 176°
2026-04-21 22:02 45.74156 17.07696 33114 ft 469 kts 176°
2026-04-21 22:03 45.67741 17.09160 33109 ft 469 kts 177°
2026-04-21 22:03 45.61287 17.10626 33105 ft 470 kts 177°
2026-04-21 22:04 45.54835 17.12080 33108 ft 470 kts 177°
2026-04-21 22:04 45.48350 17.13527 33115 ft 470 kts 177°
2026-04-21 22:05 45.41888 17.14976 33116 ft 470 kts 177°
2026-04-21 22:05 45.35413 17.16428 33115 ft 470 kts 177°
2026-04-21 22:06 45.28989 17.17863 33114 ft 470 kts 177°
2026-04-21 22:06 45.22525 17.19307 33086 ft 470 kts 178°
2026-04-21 22:07 45.16056 17.20756 33109 ft 470 kts 178°
2026-04-21 22:07 45.09588 17.22185 33118 ft 470 kts 178°
2026-04-21 22:08 45.03124 17.23610 33078 ft 470 kts 178°
2026-04-21 22:08 44.96658 17.25045 33121 ft 470 kts 179°
2026-04-21 22:09 44.90254 17.26459 33125 ft 469 kts 179°
2026-04-21 22:09 44.83783 17.27882 33092 ft 469 kts 179°
2026-04-21 22:10 44.77327 17.29295 33094 ft 469 kts 179°
2026-04-21 22:10 44.70873 17.30719 33112 ft 470 kts 179°
2026-04-21 22:11 44.64410 17.32140 33107 ft 470 kts 179°
2026-04-21 22:11 44.57935 17.33548 33090 ft 471 kts 180°
2026-04-21 22:12 44.51457 17.34948 33103 ft 471 kts 180°
2026-04-21 22:12 44.44966 17.36346 33103 ft 471 kts 180°
2026-04-21 22:13 44.38478 17.37747 33109 ft 473 kts 180°
2026-04-21 22:13 44.31973 17.39156 33116 ft 473 kts 180°
2026-04-21 22:14 44.25469 17.40560 33116 ft 472 kts 180°
2026-04-21 22:14 44.18974 17.41962 33092 ft 473 kts 180°
2026-04-21 22:15 44.12509 17.43347 32732 ft 473 kts 180°
2026-04-21 22:15 44.09256 17.44045 32463 ft 473 kts 180°
2026-04-21 22:15 44.05996 17.44743 32202 ft 474 kts 181°
2026-04-21 22:15 44.02726 17.45441 31852 ft 473 kts 180°
2026-04-21 22:16 43.99479 17.46137 31211 ft 471 kts 181°
2026-04-21 22:16 43.96244 17.46834 30579 ft 468 kts 181°
2026-04-21 22:16 43.93029 17.47526 29894 ft 466 kts 181°
2026-04-21 22:16 43.89834 17.48209 29246 ft 462 kts 181°
2026-04-21 22:17 43.86671 17.48888 28636 ft 457 kts 181°
2026-04-21 22:17 43.83544 17.49557 28018 ft 452 kts 180°
2026-04-21 22:17 43.80447 17.50217 27431 ft 447 kts 180°
2026-04-21 22:17 43.77424 17.50855 26828 ft 444 kts 180°
2026-04-21 22:18 43.74376 17.51493 26242 ft 441 kts 180°
2026-04-21 22:18 43.71352 17.52122 25656 ft 438 kts 180°
2026-04-21 22:18 43.68351 17.52750 25097 ft 435 kts 180°
2026-04-21 22:18 43.65370 17.53380 24555 ft 430 kts 180°
2026-04-21 22:19 43.62430 17.54010 24146 ft 423 kts 179°
2026-04-21 22:19 43.59514 17.54632 23546 ft 423 kts 179°
2026-04-21 22:19 43.57601 17.55038 23343 ft 417 kts 179°
2026-04-21 22:19 43.54758 17.55641 22929 ft 411 kts 179°
2026-04-21 22:20 43.51940 17.56232 22457 ft 406 kts 179°
2026-04-21 22:20 43.49162 17.56810 22001 ft 403 kts 179°
2026-04-21 22:20 43.46641 17.57336 21556 ft 399 kts 179°
2026-04-21 22:20 43.43907 17.57908 21111 ft 395 kts 179°
2026-04-21 22:21 43.41203 17.58474 20611 ft 389 kts 179°
2026-04-21 22:21 43.38538 17.59032 20081 ft 385 kts 178°
2026-04-21 22:21 43.35941 17.59581 19587 ft 371 kts 178°
2026-04-21 22:21 43.33432 17.60110 19120 ft 358 kts 178°
2026-04-21 22:22 43.31013 17.60619 18721 ft 344 kts 178°
2026-04-21 22:22 43.28649 17.61107 18347 ft 343 kts 178°
2026-04-21 22:22 43.26292 17.61589 17913 ft 341 kts 178°
2026-04-21 22:22 43.23971 17.62069 17462 ft 333 kts 178°
2026-04-21 22:23 43.21719 17.62540 17033 ft 321 kts 178°
2026-04-21 22:23 43.19544 17.62999 16607 ft 312 kts 178°
2026-04-21 22:23 43.17420 17.63443 16190 ft 306 kts 178°
2026-04-21 22:23 43.15325 17.63871 15772 ft 303 kts 178°
2026-04-21 22:24 43.13240 17.64296 15373 ft 303 kts 178°
2026-04-21 22:24 43.11141 17.64722 14978 ft 306 kts 178°
2026-04-21 22:24 43.09038 17.65153 14582 ft 304 kts 177°
2026-04-21 22:24 43.06965 17.65476 14187 ft 295 kts 185°
2026-04-21 22:25 43.04947 17.65315 13803 ft 287 kts 196°
2026-04-21 22:25 43.03038 17.64679 13358 ft 278 kts 206°
2026-04-21 22:25 43.01297 17.63645 12932 ft 270 kts 215°
2026-04-21 22:25 42.99708 17.62306 12509 ft 268 kts 218°
2026-04-21 22:26 42.98139 17.60941 12115 ft 268 kts 218°
2026-04-21 22:26 42.96568 17.59578 11856 ft 267 kts 218°
2026-04-21 22:26 42.95000 17.58219 11604 ft 266 kts 217°
2026-04-21 22:26 42.93447 17.56892 11344 ft 267 kts 213°
2026-04-21 22:27 42.91671 17.56110 11101 ft 275 kts 189°
2026-04-21 22:27 42.89753 17.56384 10851 ft 282 kts 163°
2026-04-21 22:27 42.88065 17.57735 10605 ft 284 kts 137°
2026-04-21 22:27 42.86676 17.59656 10359 ft 282 kts 135°
2026-04-21 22:28 42.85334 17.61543 10100 ft 271 kts 135°
2026-04-21 22:28 42.84038 17.63357 9910 ft 264 kts 134°
2026-04-21 22:28 42.82756 17.65143 9701 ft 265 kts 134°
2026-04-21 22:28 42.81467 17.66935 9317 ft 265 kts 134°
2026-04-21 22:29 42.80189 17.68709 9038 ft 261 kts 134°
2026-04-21 22:29 42.78914 17.70481 8695 ft 259 kts 134°
2026-04-21 22:29 42.77692 17.72270 8253 ft 261 kts 126°
2026-04-21 22:29 42.76765 17.74356 7975 ft 254 kts 116°
2026-04-21 22:30 42.75954 17.76447 7647 ft 248 kts 117°
2026-04-21 22:30 42.75150 17.78510 7319 ft 246 kts 117°
2026-04-21 22:30 42.74339 17.80554 7005 ft 244 kts 117°
2026-04-21 22:30 42.73539 17.82579 6694 ft 242 kts 117°
2026-04-21 22:31 42.72751 17.84592 6403 ft 240 kts 117°
2026-04-21 22:31 42.71970 17.86594 6081 ft 239 kts 116°
2026-04-21 22:31 42.71194 17.88577 5755 ft 237 kts 117°
2026-04-21 22:31 42.70422 17.90550 5434 ft 236 kts 117°
2026-04-21 22:32 42.69653 17.92514 5107 ft 236 kts 117°
2026-04-21 22:32 42.68884 17.94477 4780 ft 234 kts 117°
2026-04-21 22:32 42.68132 17.96395 4444 ft 228 kts 117°
2026-04-21 22:32 42.67388 17.98291 4114 ft 227 kts 116°
2026-04-21 22:33 42.66661 18.00142 3911 ft 221 kts 116°
2026-04-21 22:33 42.65949 18.01955 3761 ft 213 kts 116°
2026-04-21 22:33 42.65265 18.03695 3640 ft 203 kts 116°
2026-04-21 22:33 42.64622 18.05327 3556 ft 189 kts 116°
2026-04-21 22:34 42.64022 18.06853 3427 ft 179 kts 116°
2026-04-21 22:34 42.63442 18.08326 3226 ft 173 kts 116°
2026-04-21 22:34 42.62897 18.09711 3008 ft 160 kts 116°
2026-04-21 22:34 42.62381 18.11020 2801 ft 155 kts 116°
2026-04-21 22:35 42.61878 18.12297 2601 ft 152 kts 116°
2026-04-21 22:35 42.61378 18.13564 2404 ft 152 kts 116°
2026-04-21 22:35 42.60880 18.14826 2191 ft 152 kts 116°
2026-04-21 22:35 42.60384 18.16083 1996 ft 151 kts 117°
2026-04-21 22:36 42.59387 18.18607 1609 ft 152 kts 115°
2026-04-21 22:36 42.58888 18.19870 1397 ft 152 kts 116°
2026-04-21 22:36 42.58392 18.21135 1195 ft 152 kts 117°
2026-04-21 22:37 42.57883 18.22399 966 ft 152 kts 116°
2026-04-21 22:37 42.57389 18.23656 778 ft 151 kts 117°
2026-04-21 22:37 42.56897 18.24902 589 ft 149 kts 116°
2026-04-21 22:37 42.56442 18.26067 536 ft 120 kts 117°
2026-04-21 22:38 42.56130 18.26852 534 ft 70 kts 117°
2026-04-21 22:38 42.55973 18.27234 533 ft 26 kts 117°
2026-04-21 22:38 42.55904 18.27327 531 ft 11 kts 171°
2026-04-21 22:38 42.55832 18.27339 533 ft 9 kts 173°
2026-04-21 22:39 42.55780 18.27341 534 ft 6 kts 195°
2026-04-21 22:39 42.55765 18.27303 534 ft 4 kts 273°
2026-04-21 22:39 42.55781 18.27248 534 ft 11 kts 296°
2026-04-21 22:39 42.55830 18.27125 534 ft 16 kts 297°
2026-04-21 22:40 42.55886 18.26985 534 ft 18 kts 298°
2026-04-21 22:40 42.55947 18.26829 534 ft 20 kts 298°
2026-04-21 22:40 42.56011 18.26671 534 ft 11 kts 297°
2026-04-21 22:40 42.56048 18.26578 534 ft 11 kts 298°
2026-04-21 22:41 42.56079 18.26497 534 ft 9 kts 298°
2026-04-21 22:41 42.56106 18.26429 534 ft 7 kts 298°
2026-04-21 22:41 42.56128 18.26375 534 ft 6 kts 299°
2026-04-21 22:41 42.56145 18.26331 534 ft 5 kts 298°
2026-04-21 22:42 42.56157 18.26295 534 ft 3 kts 279°
2026-04-21 22:42 42.56149 18.26276 534 ft 2 kts 219°
2026-04-21 22:42 42.56143 18.26273 534 ft 1 kts 207°
2026-04-21 22:42 42.56125 18.26260 534 ft 3 kts 208°
2026-04-21 22:43 42.56112 18.26250 534 ft 1 kts 208°
2026-04-21 22:43 42.56107 18.26247 534 ft 0 kts 208°